Date String (YYYY-MM-DD hh:mm:ss) UTC,Instrument flags,absolute air pressure of the measurement (hPa),sample flow rate (lpm),inlet stack bypass flow (lpm),air temperature of the measurement (°C),ambient temperature measured by the external sensor (°C),aerosol sample conditioner tube jacket temperature (°C),OPC LED temperature (°C),internal box temperature (°C),relative humidity of the measurement (%),span deviation,mass concentration of particles derived from Lorenz-Mie calculation of OPC scattering (μg/m³),mass concentration of particles derived from Lorenz-Mie calculation of OPC scattering (μg/m³),mass concentration of particles derived from Lorenz-Mie calculation of OPC scattering (μg/m³)
DateTimeUTC,F1_M11,P_M11,Q1_M11,Q2_M11,T1_M11,T2_M11,T3_M11,T4_M11,T5_M11,U1_M11,ZSPAN_M11,X2_M11,X0_M11,X1_M11
2023-07-29 13:00:00,SystemResetWarning,0836.4,5.00,000.00,029.8,028.6,000.0,038.2,031.4,26.4,0000.0,0005.06,0012.26,0004.01
2023-07-29 13:01:00,SystemResetWarning,0836.4,5.00,000.00,029.8,028.6,000.0,038.2,031.4,26.4,0000.0,0005.05,0011.82,0004.02
2023-07-29 13:02:00,SystemResetWarning,0836.4,5.00,000.00,029.9,028.6,000.0,038.3,031.4,26.7,0000.0,0005.02,0011.34,0004.02
2023-07-29 13:03:00,SystemResetWarning,0836.4,5.00,000.00,029.9,028.7,000.0,038.3,031.5,27.9,0000.0,0004.96,0011.30,0004.03
2023-07-29 13:04:00,SystemResetWarning,0836.4,4.99,000.00,029.9,027.8,000.0,038.2,031.4,27.7,0000.0,0004.99,0011.68,0004.03
2023-07-29 13:05:00,SystemResetWarning,0836.4,5.00,000.00,029.8,026.3,000.0,038.1,031.2,27.2,0000.0,0004.96,0011.97,0004.04
2023-07-29 13:06:00,SystemResetWarning,0836.4,5.00,000.00,029.8,026.0,000.0,038.1,031.0,27.9,0000.0,0004.97,0011.86,0004.04
2023-07-29 13:07:00,SystemResetWarning,0836.4,4.98,000.00,029.6,026.3,000.0,038.1,030.8,28.1,0000.0,0004.98,0011.48,0004.05
2023-07-29 13:08:00,SystemResetWarning,0836.4,5.01,000.00,029.6,026.6,000.0,038.1,030.9,28.6,0000.0,0005.03,0011.61,0004.07
2023-07-29 13:09:00,SystemResetWarning,0836.4,5.02,000.00,029.6,026.9,000.0,038.1,031.0,29.2,0000.0,0005.01,0011.42,0004.06
2023-07-29 13:10:00,SystemResetWarning,0836.4,5.00,000.00,029.6,027.2,000.0,038.1,031.0,29.6,0000.0,0005.00,0011.64,0004.07
2023-07-29 13:11:00,SystemResetWarning,0836.4,4.99,000.00,029.6,027.5,000.0,038.1,031.1,29.5,0000.0,0005.01,0011.35,0004.09
2023-07-29 13:12:00,SystemResetWarning,0836.4,5.00,000.00,029.6,027.7,000.0,038.1,031.1,30.0,0000.0,0005.05,0011.72,0004.11
2023-07-29 13:13:00,SystemResetWarning,0836.4,5.00,000.00,029.6,027.9,000.0,038.1,031.1,30.2,0000.0,0005.07,0012.01,0004.12
2023-07-29 13:14:00,SystemResetWarning,0836.4,5.00,000.00,029.6,028.0,000.0,038.1,031.2,29.9,0000.0,0005.10,0011.89,0004.12
2023-07-29 13:15:00,SystemResetWarning,0836.4,5.00,000.00,029.7,028.1,000.0,038.1,031.2,30.0,0000.0,0005.07,0011.94,0004.12
2023-07-29 13:16:00,SystemResetWarning,0836.4,5.00,000.00,029.7,028.2,000.0,038.1,031.2,29.3,0000.0,0005.04,0011.43,0004.12
2023-07-29 13:17:00,SystemResetWarning,0836.4,5.01,000.00,029.7,028.3,000.0,038.1,031.3,29.4,0000.0,0005.00,0011.47,0004.11
2023-07-29 13:18:00,SystemResetWarning,0836.4,5.00,000.00,029.7,028.4,000.0,038.2,031.3,29.9,0000.0,0004.97,0012.52,0004.12
2023-07-29 13:19:00,SystemResetWarning,0836.4,4.99,000.00,029.7,028.5,000.0,038.2,031.3,29.6,0000.0,0004.96,0012.53,0004.11
2023-07-29 13:20:00,SystemResetWarning,0836.4,4.99,000.00,029.8,028.5,000.0,038.2,031.4,29.9,0000.0,0004.96,0012.33,0004.11
2023-07-29 13:21:00,SystemResetWarning,0836.4,4.99,000.00,029.8,028.6,000.0,038.2,031.4,29.8,0000.0,0005.00,0012.02,0004.12
2023-07-29 13:22:00,SystemResetWarning,0836.4,4.99,000.00,029.8,028.5,000.0,038.2,031.4,29.6,0000.0,0004.97,0012.31,0004.11
2023-07-29 13:23:00,SystemResetWarning,0836.4,5.00,000.00,029.8,027.2,000.0,038.1,031.3,28.8,0000.0,0004.94,0012.19,0004.10
2023-07-29 13:24:00,SystemResetWarning,0836.4,5.00,000.00,029.8,025.6,000.0,038.0,031.1,28.8,0000.0,0004.96,0012.55,0004.11
2023-07-29 13:25:00,SystemResetWarning,0836.4,5.01,000.00,029.7,025.2,000.0,037.9,030.9,29.1,0000.0,0005.03,0013.11,0004.12
2023-07-29 13:26:00,SystemResetWarning,0836.4,5.01,000.00,029.5,025.5,000.0,038.0,030.7,29.7,0000.0,0005.09,0013.07,0004.13
2023-07-29 13:27:00,SystemResetWarning,0836.4,4.99,000.00,029.5,025.9,000.0,038.0,030.7,30.2,0000.0,0005.10,0013.25,0004.12
2023-07-29 13:28:00,SystemResetWarning,0836.5,5.00,000.00,029.4,026.3,000.0,038.0,030.8,29.5,0000.0,0005.11,0013.12,0004.13
2023-07-29 13:29:00,SystemResetWarning,0836.5,5.00,000.00,029.4,026.7,000.0,038.0,030.8,29.5,0000.0,0005.18,0012.44,0004.13
2023-07-29 13:30:00,SystemResetWarning,0836.5,5.01,000.00,029.4,027.0,000.0,038.0,030.9,29.5,0000.0,0005.25,0012.64,0004.14
2023-07-29 13:31:00,SystemResetWarning,0836.5,5.00,000.00,029.4,027.3,000.0,038.0,030.9,29.7,0000.0,0005.30,0013.73,0004.15
2023-07-29 13:32:00,SystemResetWarning,0836.5,5.00,000.00,029.4,027.5,000.0,038.0,031.0,29.8,0000.0,0005.30,0014.04,0004.14
2023-07-29 13:33:00,SystemResetWarning,0836.5,5.00,000.00,029.5,027.7,000.0,038.0,031.0,29.2,0000.0,0005.30,0013.53,0004.15
2023-07-29 13:34:00,SystemResetWarning,0836.6,5.00,000.00,029.5,027.9,000.0,038.0,031.1,28.7,0000.0,0005.32,0013.33,0004.15
2023-07-29 13:35:00,SystemResetWarning,0836.6,5.00,000.00,029.5,028.0,000.0,038.0,031.1,28.8,0000.0,0005.31,0012.59,0004.15
2023-07-29 13:36:00,SystemResetWarning,0836.6,5.00,000.00,029.5,028.1,000.0,038.0,031.2,28.7,0000.0,0005.26,0012.21,0004.14
2023-07-29 13:37:00,SystemResetWarning,0836.6,4.99,000.00,029.6,028.2,000.0,038.0,031.2,28.3,0000.0,0005.25,0012.08,0004.14
2023-07-29 13:38:00,SystemResetWarning,0836.6,4.99,000.00,029.6,028.3,000.0,038.0,031.2,29.3,0000.0,0005.31,0012.31,0004.15
2023-07-29 13:39:00,SystemResetWarning,0836.7,5.00,000.00,029.6,028.4,000.0,038.0,031.3,29.4,0000.0,0005.33,0012.44,0004.14
2023-07-29 13:40:00,SystemResetWarning,0836.7,5.00,000.00,029.7,028.5,000.0,038.1,031.3,29.2,0000.0,0005.27,0011.90,0004.13
2023-07-29 13:41:00,SystemResetWarning,0836.7,5.00,000.00,029.7,028.5,000.0,038.1,031.3,28.7,0000.0,0005.21,0012.01,0004.12
2023-07-29 13:42:00,SystemResetWarning,0836.8,5.00,000.00,029.7,028.6,000.0,038.1,031.4,29.2,0000.0,0005.26,0011.57,0004.12
2023-07-29 13:43:00,SystemResetWarning,0836.8,5.00,000.00,029.7,028.6,000.0,038.1,031.4,29.7,0000.0,0005.30,0012.94,0004.12
2023-07-29 13:44:00,SystemResetWarning,0836.8,5.00,000.00,029.8,028.5,000.0,038.1,031.4,29.6,0000.0,0005.36,0013.47,0004.13
2023-07-29 13:45:00,SystemResetWarning,0836.8,5.00,000.00,029.8,027.0,000.0,038.0,031.2,29.3,0000.0,0005.38,0014.17,0004.12
2023-07-29 13:46:00,SystemResetWarning,0836.8,5.01,000.00,029.7,025.6,000.0,037.9,031.0,29.5,0000.0,0005.39,0015.21,0004.13
2023-07-29 13:47:00,SystemResetWarning,0836.8,5.01,000.00,029.6,025.3,000.0,037.9,030.8,29.7,0000.0,0005.45,0016.69,0004.15
2023-07-29 13:48:00,SystemResetWarning,0836.8,5.01,000.00,029.5,025.6,000.0,037.9,030.7,30.1,0000.0,0005.39,0017.20,0004.15
2023-07-29 13:49:00,SystemResetWarning,0836.8,4.99,000.00,029.4,026.0,000.0,037.9,030.7,30.2,0000.0,0005.40,0016.91,0004.16
2023-07-29 13:50:00,SystemResetWarning,0836.8,4.99,000.00,029.4,026.4,000.0,037.9,030.8,30.5,0000.0,0005.41,0016.79,0004.17
2023-07-29 13:51:00,SystemResetWarning,0836.8,5.01,000.00,029.4,026.8,000.0,037.9,030.8,30.3,0000.0,0005.45,0017.04,0004.18
2023-07-29 13:52:00,SystemResetWarning,0836.9,5.01,000.00,029.4,027.1,000.0,037.9,030.9,31.0,0000.0,0005.43,0016.86,0004.18
2023-07-29 13:53:00,SystemResetWarning,0837.0,5.01,000.00,029.4,027.4,000.0,037.9,030.9,30.9,0000.0,0005.39,0016.58,0004.19
2023-07-29 13:54:00,SystemResetWarning,0837.0,4.99,000.00,029.4,027.6,000.0,037.9,031.0,31.3,0000.0,0005.35,0015.09,0004.19
2023-07-29 13:55:00,SystemResetWarning,0837.1,4.99,000.00,029.4,027.8,000.0,037.9,031.0,31.7,0000.0,0005.33,0014.76,0004.19
2023-07-29 13:56:00,SystemResetWarning,0837.2,5.01,000.00,029.5,027.9,000.0,038.0,031.1,31.2,0000.0,0005.34,0014.76,0004.19
2023-07-29 13:57:00,SystemResetWarning,0837.2,5.00,000.00,029.5,028.0,000.0,038.0,031.1,31.9,0000.0,0005.37,0014.66,0004.17
2023-07-29 13:58:00,SystemResetWarning,0837.2,5.00,000.00,029.5,028.2,000.0,038.0,031.1,31.8,0000.0,0005.35,0013.87,0004.15
2023-07-29 13:59:00,SystemResetWarning,0837.2,5.01,000.00,029.5,028.2,000.0,038.0,031.2,31.7,0000.0,0005.39,0013.59,0004.14
